Starlink 4693

operational
NORAD ID: 53605 Int'l Des: 2022-104 Owner: SPXS Country: US Constellation: starlink
LEOCIRCULAR

Starlink 4693について

説明を読み込み中...

リアルタイム位置

3D地球を読み込み中...

次回通過

高度履歴

Altitude vs Time

uPlot chart will show altitude changes over time

軌道要素

1 53605U 22104T 25350.13211566 .00002674 00000-0 18606-3 0 9991
2 53605 53.2174 259.0021 0001289 85.6322 274.4817 15.08837872183002
Epoch: Dec 16, 2025 • Age: 23 hours

現在のステータス

高度 556.9 km
速度 7.58 km/s
衛星直下点 -47.63°S, 5.49°E
打ち上げ日 Aug 28, 2022
運用期間 3.3 years
タイプ internet

技術仕様

分類 Payload
質量 300.00 kg
乾燥質量 290.00 kg
総質量 300.00 kg
長さ 0.20 m
直径 2.80 m
スパン 9.00 m
形状 Box + pan
製造者 SPXS
バスタイプ Starlink
フェーズステータス In Orbit
所有者/国 SPXS/US

大規模コンステレーション

Loading constellations...